Terminal Aerodrome Forecast
Issued by NWS Brownsville, TX

Home | Current Version | Previous Version | Text Only | Print | Product List | Glossary On
Versions: 1 2 3 4 5 6 7 8 9 10 11 12 13 14 15 16 17 18 19 20 21 22 23 24 25
000
FTUS44 KBRO 301900 AAA
TAFBRO
TAF AMD
KBRO 301924Z 3019/0118 23006KT P6SM SCT028
     FM302000 12007KT P6SM SCT025 BKN050
     FM010000 15006KT P6SM FEW250=

USA.gov is the U.S. government's official web portal to all federal, state and local government web resources and services.